Batesville, AR

2:42 PM CST on February 10, 2016 (GMT -0600)
Batesville Regional

Weather History for KBVX - January, 2013

Change the Weather History Date:

Tuesday, January 29, 2013

  Actual Average Record
Temperature  
Mean Temperature 61 °F -  
Max Temperature 69 °F 51 °F - (-1)
Min Temperature 53 °F 29 °F - (-1)
Degree Days  
Heating Degree Days 4    
Growing Degree Days 11 (Base 50)    
Moisture  
Dew Point 58 °F    
Average Humidity 87    
Maximum Humidity 100    
Minimum Humidity 64    
Precipitation  
Precipitation 0.74 in - - ()
Sea Level Pressure  
Sea Level Pressure 29.61 in    
Wind  
Wind Speed 12 mph (South)    
Max Wind Speed 22 mph    
Max Gust Speed 36 mph    
Visibility 9 miles    
Events Thunderstorm    
Averages and records for this station are not official NWS values.
T = Trace of Precipitation, MM = Missing Value Source: NWS Daily Summary

Daily Weather History Graph

Daily Weather History Graph

Search for Another Location

Airport or City:

Trip Planner

Search our weather history database for the weather conditions in past years. The results will help you decide how hot, cold, wet, or windy it might be!

Date:

Astronomy

Jan. 29, 2013 Rise Set
Actual Time 7:08 AM CST 5:31 PM CST
Civil Twilight 6:41 AM CST 5:58 PM CST
Nautical Twilight 6:11 AM CST 6:28 PM CST
Astronomical Twilight 5:40 AM CST 6:59 PM CST
Moon 8:19 PM CST (1/29) 8:12 AM CST (1/29)
Length of Visible Light 11h 16m
Length of Day
10h 22m
Waning Gibbous, 93% of the Moon is Illuminated
Jan 29
Waning Gibbous
Feb 3
Last Quarter
Feb 10
New
Feb 17
First Quarter
Feb 25
Full

Hourly Weather History & Observations

Time (CST) Temp. Dew Point Humidity Pressure Visibility Wind Dir Wind Speed Gust Speed Precip Events Conditions
12:15 AM 64.4 °F 59.0 °F 83% 29.99 in 10.0 mi South 8.1 mph 17.3 mph N/A   Overcast
5:15 AM 64.4 °F 57.2 °F 77% 29.92 in 10.0 mi South 9.2 mph 19.6 mph N/A   Overcast
7:55 AM 64.4 °F 57.2 °F 77% 29.89 in 10.0 mi South 13.8 mph 21.9 mph N/A   Overcast
2:16 PM 69.8 °F 57.2 °F 64% 29.64 in 10.0 mi South 16.1 mph 26.5 mph N/A   Overcast
2:35 PM 69.8 °F 57.2 °F 64% 29.64 in 10.0 mi South 15.0 mph 23.0 mph N/A   Overcast
3:15 PM 66.2 °F 59.0 °F 78% 29.63 in 4.0 mi South 16.1 mph 28.8 mph N/A   Overcast
3:35 PM 66.2 °F 59.0 °F 78% 29.61 in 8.0 mi South 18.4 mph 27.6 mph N/A   Overcast
3:55 PM 66.2 °F 60.8 °F 83% 29.60 in 10.0 mi South 19.6 mph 31.1 mph N/A   Overcast
4:15 PM 66.2 °F 60.8 °F 83% 29.60 in 10.0 mi South 15.0 mph 28.8 mph N/A   Overcast
4:36 PM 66.2 °F 60.8 °F 83% 29.58 in 10.0 mi South 20.7 mph 35.7 mph N/A   Overcast
4:55 PM 66.2 °F 60.8 °F 83% 29.57 in 7.0 mi South 17.3 mph 28.8 mph 0.01 in Thunderstorm Thunderstorm
5:15 PM 66.2 °F 60.8 °F 83% 29.56 in 9.0 mi South 17.3 mph 28.8 mph N/A   Overcast
5:35 PM 66.2 °F 60.8 °F 83% 29.54 in 10.0 mi South 18.4 mph 31.1 mph N/A   Mostly Cloudy
5:55 PM 66.2 °F 60.8 °F 83% 29.53 in 10.0 mi South 21.9 mph 27.6 mph N/A   Mostly Cloudy
6:35 PM 66.2 °F 60.8 °F 83% 29.51 in 9.0 mi South 15.0 mph 23.0 mph 0.03 in   Mostly Cloudy
6:55 PM 66.2 °F 60.8 °F 83% 29.50 in 10.0 mi SSE 18.4 mph 28.8 mph 0.04 in   Mostly Cloudy
7:35 PM 66.2 °F 62.6 °F 88% 29.50 in 8.0 mi South 13.8 mph 21.9 mph 0.17 in Thunderstorm Thunderstorm
7:55 PM 66.2 °F 64.4 °F 94% 29.49 in 10.0 mi SSW 12.7 mph 17.3 mph 0.18 in Thunderstorm Overcast
8:15 PM 66.2 °F 62.6 °F 88% 29.60 in 10.0 mi West 12.7 mph 29.9 mph 0.02 in Thunderstorm Thunderstorm
8:35 PM 55.4 °F 53.6 °F 94% 29.59 in 3.0 mi NNW 6.9 mph 18.4 mph 0.51 in Thunderstorm Mostly Cloudy
9:15 PM 53.6 °F 51.8 °F 94% 29.55 in 10.0 mi NW 4.6 mph - N/A   Overcast
9:35 PM 53.6 °F 53.6 °F 100% 29.56 in 9.0 mi WNW 3.5 mph - N/A   Overcast
9:56 PM 53.6 °F 53.6 °F 100% 29.57 in 10.0 mi West 3.5 mph - N/A   Overcast
10:15 PM 53.6 °F 53.6 °F 100% 29.56 in 9.0 mi Calm Calm - N/A   Overcast
10:35 PM 53.6 °F 51.8 °F 94% 29.56 in 9.0 mi SSE 4.6 mph - N/A   Overcast
10:55 PM 53.6 °F 53.6 °F 100% 29.57 in 10.0 mi South 3.5 mph - N/A   Overcast
11:15 PM 53.6 °F 53.6 °F 100% 29.57 in 7.0 mi SE 3.5 mph - N/A   Overcast
11:35 PM 53.6 °F 53.6 °F 100% 29.59 in 5.0 mi SSE 4.6 mph - N/A   Overcast
11:56 PM 53.6 °F 51.8 °F 94% 29.59 in 8.0 mi SSW 3.5 mph - N/A   Overcast